Погода в Эль-Куте

Ирак     32°30′52″N   45°48′58″E
темп.,
°C
ветер,
м/с
пор.,
м/с
влажн.,
%
обл.,
%
осадки,
мм/ч
давл.,
гПа
погр.,
м
25 февраля, чт
чт2500:00+10юз81072100 0.9 1016392
03:00+11зюз6869100 2.9 1016372
06:00+11сз3662100 0.0 1017384
09:00+12з455977 0.0 1018671
12:00+16з23420 0.0 10181176
15:00+18з22350 0.0 10161348
18:00+17сз23400 0.0 1017378
21:00+16с34410 0.0 1017125
26 февраля, пт
пт2600:00+15ссз34450 0.0 101775
03:00+13сз35480 0.0 1017104
06:00+12сз45460 0.0 1017105
09:00+16зсз45350 0.0 1018273
12:00+20сз44270 0.0 1018953
15:00+22сз44210 0.0 10161779
18:00+19сз46250 0.0 1016542
21:00+17сз58280 0.0 1017234
27 февраля, сб
сб2700:00+14сз610340 0.0 1017223
03:00+13сз611380 0.0 1016226
06:00+12сз59410 0.0 1016186
09:00+16сз710320 0.0 1018533
12:00+20сз67220 0.0 10171283
15:00+22сз55180 0.0 10161664
18:00+19с35220 0.0 1015334
21:00+16сз23270 0.0 101646
28 февраля, вс
вс2800:00+14з45300 0.0 101684
03:00+13ссз34340 0.0 101567
06:00+11с11410 0.0 101522
09:00+16юз222817 0.0 1016182
12:00+20юз2220100 0.0 10151092
15:00+20сз1118100 0.0 10141065
18:00+19юв2225100 0.0 1014324
21:00+18зсз013399 0.0 101554
1 марта, пн
пн100:00+18ююв2430100 0.0 1015217
03:00+17св4548100 0.0 101595
06:00+16всв464596 0.0 1016170
09:00+19в343464 0.0 1017437
12:00+22юв112522 0.0 10172128
15:00+23з012311 0.0 10152571
18:00+21сз11310 0.0 1015723
21:00+20всв34336 0.0 1016110